STARLINK-35050

Last updated on Thu Oct 02 2025 00:02:05 GMT+0000 (Coordinated Universal Time)

1 65440U 25194G 25274.50002315 .00133488 00000+0 33740-2 0 9991 2 65440 97.6029 126.8651 0001271 97.2841 304.1422 15.39267356 4923

Satellite not in orbit

STARLINK-35050